GEC221 EDDH-LGAV

Flight info

Callsign GEC221
Flight time 2h 32m
Altitude 39000
Route AMLUH2G/33 AMLUH M852 DENIX DCT ZUCKA DCT SODRO DCT RUDNO DCT LAMSI DCT LIMRA DCT MOSAV DCT LURID DCT PODOB DCT MEDUX UM867 KOGAT DCT TALAS DCT SIGFO UM749 ROPOX ROPOX1W
Aircraft A333/H-SDE3GHIJ2J3J5M1RVWXY/LB2D1

Departure

Time 2026-04-21 07:30
Airport Hamburg Helmut Schmidt Airport (EDDH)

Arrival

Time 2026-04-21 10:02
Airport Athens Eleftherios Venizelos International Airport (LGAV)
Time Latitude Longitude Altitude Speed Heading
2026-04-21 07:30 53.67530 9.96072 970 ft 134 kts 357°
2026-04-21 07:30 53.68537 9.95907 1604 ft 157 kts
2026-04-21 07:30 53.69702 9.95893 2339 ft 181 kts
2026-04-21 07:30 53.71014 9.96088 3084 ft 196 kts 10°
2026-04-21 07:31 53.72388 9.96284 3826 ft 199 kts 11°
2026-04-21 07:31 53.73742 9.96723 4987 ft 195 kts 19°
2026-04-21 07:31 53.74795 9.97885 6279 ft 177 kts 65°
2026-04-21 07:31 53.74725 9.99773 7543 ft 163 kts 123°
2026-04-21 07:32 53.73855 10.00783 8652 ft 155 kts 146°
2026-04-21 07:32 53.72747 10.01636 8828 ft 198 kts 155°
2026-04-21 07:32 53.71247 10.02243 8908 ft 244 kts 163°
2026-04-21 07:32 53.69659 10.03449 9261 ft 257 kts 139°
2026-04-21 07:33 53.68259 10.05450 9848 ft 269 kts 132°
2026-04-21 07:33 53.66886 10.07622 10624 ft 269 kts 133°
2026-04-21 07:33 53.65442 10.09724 11157 ft 281 kts 136°
2026-04-21 07:33 53.63828 10.11797 11354 ft 305 kts 140°
2026-04-21 07:34 53.61979 10.13885 11377 ft 333 kts 143°
2026-04-21 07:34 53.59970 10.15945 11373 ft 350 kts 145°
2026-04-21 07:34 53.57817 10.18028 11368 ft 361 kts 146°
2026-04-21 07:34 53.55613 10.20108 11446 ft 365 kts 147°
2026-04-21 07:35 53.53385 10.22202 12071 ft 366 kts 147°
2026-04-21 07:35 53.51176 10.24290 12974 ft 364 kts 146°
2026-04-21 07:35 53.48968 10.26394 13747 ft 365 kts 146°
2026-04-21 07:35 53.46750 10.28524 14404 ft 368 kts 146°
2026-04-21 07:36 53.44506 10.30665 15020 ft 373 kts 148°
2026-04-21 07:36 53.42094 10.32385 15602 ft 381 kts 155°
2026-04-21 07:36 53.39564 10.33802 16197 ft 386 kts 158°
2026-04-21 07:36 53.36972 10.35074 16752 ft 391 kts 160°
2026-04-21 07:37 53.34332 10.36265 17347 ft 394 kts 160°
2026-04-21 07:37 53.31664 10.37425 17908 ft 398 kts 161°
2026-04-21 07:37 53.28976 10.38585 18498 ft 401 kts 161°
2026-04-21 07:37 53.26260 10.39764 18998 ft 405 kts 160°
2026-04-21 07:38 53.23556 10.40951 19457 ft 407 kts 160°
2026-04-21 07:38 53.20807 10.42167 19967 ft 410 kts 160°
2026-04-21 07:38 53.18047 10.43393 20442 ft 413 kts 160°
2026-04-21 07:38 53.15262 10.44632 20909 ft 415 kts 160°
2026-04-21 07:39 53.12452 10.45844 21379 ft 419 kts 161°
2026-04-21 07:39 53.09587 10.46884 21838 ft 423 kts 163°
2026-04-21 07:39 53.06683 10.47808 22282 ft 426 kts 164°
2026-04-21 07:39 53.03753 10.48682 22725 ft 429 kts 165°
2026-04-21 07:40 53.00807 10.49548 23173 ft 432 kts 165°
2026-04-21 07:40 52.97829 10.50430 23616 ft 434 kts 165°
2026-04-21 07:40 52.94882 10.51316 24018 ft 437 kts 164°
2026-04-21 07:40 52.91886 10.52229 24379 ft 440 kts 164°
2026-04-21 07:41 52.88864 10.53156 24742 ft 442 kts 164°
2026-04-21 07:41 52.85836 10.54090 25100 ft 445 kts 164°
2026-04-21 07:41 52.82787 10.55031 25455 ft 447 kts 164°
2026-04-21 07:41 52.79714 10.55979 25815 ft 449 kts 164°
2026-04-21 07:42 52.76645 10.56925 26166 ft 452 kts 165°
2026-04-21 07:42 52.73524 10.57885 26503 ft 455 kts 165°
2026-04-21 07:42 52.70405 10.58842 26860 ft 458 kts 165°
2026-04-21 07:42 52.67264 10.59803 27205 ft 460 kts 165°
2026-04-21 07:43 52.64106 10.60768 27547 ft 462 kts 165°
2026-04-21 07:43 52.60936 10.61736 27881 ft 465 kts 165°
2026-04-21 07:43 52.57743 10.62709 28204 ft 467 kts 165°
2026-04-21 07:43 52.54540 10.63683 28551 ft 470 kts 165°
2026-04-21 07:44 52.51315 10.64664 28855 ft 473 kts 165°
2026-04-21 07:44 52.48065 10.65651 29068 ft 478 kts 166°
2026-04-21 07:44 52.44778 10.66646 29388 ft 480 kts 166°
2026-04-21 07:44 52.41487 10.67641 29718 ft 482 kts 166°
2026-04-21 07:45 52.38223 10.68626 30047 ft 484 kts 166°
2026-04-21 07:45 52.34919 10.69621 30500 ft 483 kts 166°
2026-04-21 07:45 52.31612 10.70614 30872 ft 482 kts 166°
2026-04-21 07:45 52.28312 10.71605 31232 ft 481 kts 166°
2026-04-21 07:46 52.25023 10.72591 31544 ft 482 kts 167°
2026-04-21 07:46 52.21709 10.73584 31826 ft 483 kts 167°
2026-04-21 07:46 52.18397 10.74576 32157 ft 483 kts 167°
2026-04-21 07:46 52.15097 10.75562 32509 ft 482 kts 167°
2026-04-21 07:47 52.11804 10.76544 32854 ft 482 kts 167°
2026-04-21 07:47 52.08492 10.77531 33191 ft 481 kts 168°
2026-04-21 07:47 52.05196 10.78512 33512 ft 481 kts 168°
2026-04-21 07:47 52.01944 10.79478 33815 ft 482 kts 168°
2026-04-21 07:48 51.95281 10.81454 34155 ft 488 kts 169°
2026-04-21 07:48 51.91942 10.82441 34483 ft 486 kts 169°
2026-04-21 07:48 51.88611 10.83425 34736 ft 486 kts 169°
2026-04-21 07:49 51.85283 10.84406 34955 ft 486 kts 169°
2026-04-21 07:49 51.81951 10.85387 35184 ft 487 kts 169°
2026-04-21 07:49 51.78623 10.86366 35403 ft 487 kts 169°
2026-04-21 07:49 51.75284 10.87346 35543 ft 489 kts 169°
2026-04-21 07:50 51.71932 10.88328 35714 ft 490 kts 169°
2026-04-21 07:50 51.68604 10.89515 35937 ft 490 kts 162°
2026-04-21 07:50 51.65404 10.91379 36145 ft 488 kts 156°
2026-04-21 07:50 51.62342 10.93570 36359 ft 488 kts 154°
2026-04-21 07:51 51.59273 10.95917 36558 ft 488 kts 153°
2026-04-21 07:51 51.56220 10.98332 36757 ft 488 kts 153°
2026-04-21 07:51 51.53177 11.00767 36928 ft 489 kts 152°
2026-04-21 07:51 51.50127 11.03208 37132 ft 489 kts 153°
2026-04-21 07:52 51.47075 11.05636 37333 ft 489 kts 153°
2026-04-21 07:52 51.44019 11.08052 37532 ft 489 kts 153°
2026-04-21 07:52 51.40965 11.10453 37729 ft 490 kts 153°
2026-04-21 07:52 51.37898 11.12853 37909 ft 490 kts 153°
2026-04-21 07:53 51.34826 11.15251 38084 ft 490 kts 153°
2026-04-21 07:53 51.31753 11.17645 38272 ft 490 kts 153°
2026-04-21 07:53 51.28688 11.20028 38447 ft 490 kts 154°
2026-04-21 07:53 51.25660 11.22380 38592 ft 491 kts 154°
2026-04-21 07:54 51.22548 11.24795 38737 ft 492 kts 154°
2026-04-21 07:54 51.19506 11.27152 38905 ft 492 kts 154°
2026-04-21 07:54 51.16427 11.29534 39038 ft 492 kts 154°
2026-04-21 07:54 51.13350 11.31911 39167 ft 491 kts 154°
2026-04-21 07:55 51.07183 11.36664 39248 ft 491 kts 154°
2026-04-21 07:55 51.01029 11.41394 39249 ft 490 kts 154°
2026-04-21 07:56 50.94886 11.46101 39242 ft 490 kts 154°
2026-04-21 07:56 50.88738 11.50798 39243 ft 491 kts 154°
2026-04-21 07:57 50.82583 11.55487 39232 ft 491 kts 154°
2026-04-21 07:57 50.76428 11.60161 39231 ft 491 kts 154°
2026-04-21 07:58 50.70268 11.64826 39222 ft 492 kts 154°
2026-04-21 07:58 50.64082 11.69496 39222 ft 493 kts 154°
2026-04-21 07:59 50.57892 11.74156 39215 ft 493 kts 155°
2026-04-21 07:59 50.51707 11.78800 39196 ft 492 kts 155°
2026-04-21 08:00 50.45548 11.83363 39189 ft 492 kts 156°
2026-04-21 08:00 50.39231 11.87555 39182 ft 493 kts 158°
2026-04-21 08:01 50.32876 11.91580 39185 ft 492 kts 158°
2026-04-21 08:02 50.23353 11.97640 39177 ft 492 kts 158°
2026-04-21 08:02 50.18077 12.01019 39193 ft 494 kts 158°
2026-04-21 08:03 50.11703 12.05100 39179 ft 493 kts 158°
2026-04-21 08:03 50.05365 12.09145 39165 ft 492 kts 158°
2026-04-21 08:04 49.99022 12.13180 39156 ft 493 kts 158°
2026-04-21 08:04 49.92671 12.17208 39152 ft 493 kts 158°
2026-04-21 08:05 49.86344 12.21208 39152 ft 494 kts 158°
2026-04-21 08:05 49.79977 12.25223 39148 ft 494 kts 159°
2026-04-21 08:06 49.73613 12.29224 39149 ft 494 kts 159°
2026-04-21 08:06 49.67244 12.33217 39148 ft 494 kts 159°
2026-04-21 08:07 49.60882 12.37195 39149 ft 494 kts 159°
2026-04-21 08:07 49.54500 12.41174 39146 ft 493 kts 159°
2026-04-21 08:08 49.48122 12.45139 39149 ft 494 kts 159°
2026-04-21 08:08 49.41775 12.49074 39147 ft 495 kts 159°
2026-04-21 08:09 49.35459 12.53293 39146 ft 495 kts 151°
2026-04-21 08:09 49.29998 12.59692 39141 ft 495 kts 137°
2026-04-21 08:10 49.25080 12.67112 39133 ft 497 kts 134°
2026-04-21 08:10 49.20250 12.74714 39137 ft 498 kts 134°
2026-04-21 08:11 49.15432 12.82247 39132 ft 498 kts 134°
2026-04-21 08:11 49.10560 12.89774 39132 ft 498 kts 135°
2026-04-21 08:12 49.05673 12.97271 39134 ft 498 kts 135°
2026-04-21 08:12 49.00780 13.04751 39132 ft 498 kts 135°
2026-04-21 08:13 48.95874 13.12233 39136 ft 499 kts 135°
2026-04-21 08:13 48.90961 13.19704 39135 ft 500 kts 135°
2026-04-21 08:14 48.86039 13.27168 39136 ft 499 kts 135°
2026-04-21 08:14 48.81115 13.34614 39135 ft 499 kts 135°
2026-04-21 08:15 48.76216 13.41999 39132 ft 500 kts 135°
2026-04-21 08:15 48.71280 13.49419 39129 ft 500 kts 135°
2026-04-21 08:16 48.66318 13.56823 39133 ft 501 kts 138°
2026-04-21 08:16 48.60954 13.63549 39135 ft 500 kts 142°
2026-04-21 08:17 48.55483 13.70050 39135 ft 501 kts 143°
2026-04-21 08:17 48.49977 13.76506 39137 ft 501 kts 143°
2026-04-21 08:18 48.44507 13.82915 39130 ft 501 kts 143°
2026-04-21 08:18 48.38987 13.89380 39138 ft 503 kts 143°
2026-04-21 08:19 48.33467 13.95834 39136 ft 502 kts 143°
2026-04-21 08:19 48.27950 14.02268 39135 ft 502 kts 143°
2026-04-21 08:20 48.22423 14.08694 39155 ft 502 kts 143°
2026-04-21 08:20 48.16887 14.15111 39157 ft 504 kts 143°
2026-04-21 08:21 48.11336 14.21529 39160 ft 505 kts 143°
2026-04-21 08:21 48.05768 14.27947 39147 ft 504 kts 143°
2026-04-21 08:22 48.00243 14.34299 39142 ft 504 kts 143°
2026-04-21 08:22 47.94679 14.40677 39133 ft 504 kts 143°
2026-04-21 08:23 47.89102 14.47026 39126 ft 504 kts 144°
2026-04-21 08:23 47.83487 14.53288 39132 ft 504 kts 144°
2026-04-21 08:24 47.77871 14.59507 39122 ft 504 kts 144°
2026-04-21 08:24 47.72247 14.65726 39120 ft 504 kts 144°
2026-04-21 08:25 47.66607 14.71955 39113 ft 505 kts 144°
2026-04-21 08:25 47.60951 14.78187 39110 ft 507 kts 144°
2026-04-21 08:26 47.55290 14.84407 39103 ft 506 kts 144°
2026-04-21 08:26 47.49635 14.90603 39084 ft 505 kts 144°
2026-04-21 08:27 47.43990 14.96770 39077 ft 505 kts 144°
2026-04-21 08:27 47.38318 15.02951 39071 ft 507 kts 144°
2026-04-21 08:28 47.32666 15.09093 39072 ft 508 kts 144°
2026-04-21 08:28 47.26980 15.15255 39065 ft 506 kts 144°
2026-04-21 08:29 47.21295 15.21401 39064 ft 506 kts 144°
2026-04-21 08:29 47.15613 15.27526 39064 ft 507 kts 144°
2026-04-21 08:30 47.09921 15.33644 39073 ft 507 kts 144°
2026-04-21 08:30 47.04265 15.39707 39074 ft 506 kts 144°
2026-04-21 08:31 46.98572 15.45795 39077 ft 505 kts 144°
2026-04-21 08:31 46.92895 15.51847 39065 ft 505 kts 145°
2026-04-21 08:32 46.87225 15.57894 39268 ft 503 kts 145°
2026-04-21 08:32 46.84389 15.60908 39164 ft 506 kts 145°
2026-04-21 08:32 46.81540 15.63923 39078 ft 505 kts 145°
2026-04-21 08:33 46.75850 15.69932 39077 ft 504 kts 145°
2026-04-21 08:33 46.70171 15.75917 39054 ft 503 kts 145°
2026-04-21 08:34 46.64490 15.81893 39074 ft 504 kts 145°
2026-04-21 08:34 46.58832 15.87831 39077 ft 504 kts 146°
2026-04-21 08:35 46.53131 15.93798 39077 ft 504 kts 146°
2026-04-21 08:35 46.47425 15.99754 39081 ft 504 kts 146°
2026-04-21 08:36 46.41727 16.05686 39080 ft 505 kts 146°
2026-04-21 08:36 46.36003 16.11630 39079 ft 505 kts 146°
2026-04-21 08:37 46.30321 16.17515 39077 ft 505 kts 146°
2026-04-21 08:37 46.24603 16.23421 39078 ft 505 kts 146°
2026-04-21 08:38 46.18892 16.29305 39071 ft 504 kts 146°
2026-04-21 08:38 46.13174 16.35181 39077 ft 504 kts 146°
2026-04-21 08:39 46.07449 16.41049 39078 ft 504 kts 146°
2026-04-21 08:39 46.01726 16.46900 39077 ft 504 kts 147°
2026-04-21 08:40 45.95997 16.52740 39063 ft 504 kts 146°
2026-04-21 08:40 45.90274 16.58561 39070 ft 504 kts 147°
2026-04-21 08:41 45.84541 16.64376 39070 ft 504 kts 147°
2026-04-21 08:41 45.78838 16.70146 39070 ft 504 kts 147°
2026-04-21 08:42 45.73102 16.75935 39059 ft 504 kts 147°
2026-04-21 08:42 45.67368 16.81706 39057 ft 505 kts 147°
2026-04-21 08:43 45.61619 16.87477 39060 ft 505 kts 147°
2026-04-21 08:43 45.55862 16.93256 39056 ft 505 kts 146°
2026-04-21 08:44 45.50278 16.99286 39058 ft 506 kts 144°
2026-04-21 08:44 45.44734 17.05513 39058 ft 506 kts 143°
2026-04-21 08:45 45.39198 17.11704 39051 ft 506 kts 144°
2026-04-21 08:45 45.33642 17.17855 39046 ft 506 kts 144°
2026-04-21 08:46 45.28080 17.23975 39043 ft 505 kts 144°
2026-04-21 08:46 45.22558 17.30032 39030 ft 504 kts 144°
2026-04-21 08:47 45.16998 17.36117 39041 ft 504 kts 144°
2026-04-21 08:47 45.11464 17.42230 39040 ft 504 kts 143°
2026-04-21 08:48 45.06026 17.48501 39038 ft 504 kts 142°
2026-04-21 08:48 45.00608 17.54800 39034 ft 504 kts 142°
2026-04-21 08:49 44.96104 17.60007 39062 ft 504 kts 143°
2026-04-21 08:49 44.90673 17.66248 39057 ft 503 kts 143°
2026-04-21 08:50 44.85226 17.72483 39045 ft 503 kts 143°
2026-04-21 08:50 44.79787 17.78693 39033 ft 503 kts 143°
2026-04-21 08:51 44.74373 17.84860 39024 ft 503 kts 143°
2026-04-21 08:51 44.68925 17.91050 39031 ft 504 kts 143°
2026-04-21 08:52 44.63469 17.97234 39026 ft 504 kts 143°
2026-04-21 08:52 44.58003 18.03414 39028 ft 504 kts 144°
2026-04-21 08:53 44.52540 18.09575 39023 ft 504 kts 144°
2026-04-21 08:53 44.47104 18.15692 39020 ft 504 kts 144°
2026-04-21 08:54 44.41634 18.21830 39019 ft 504 kts 144°
2026-04-21 08:54 44.36150 18.27970 39023 ft 505 kts 144°
2026-04-21 08:55 44.30657 18.34103 39026 ft 505 kts 144°
2026-04-21 08:55 44.25155 18.40232 39016 ft 505 kts 144°
2026-04-21 08:56 44.19695 18.46300 39023 ft 505 kts 144°
2026-04-21 08:56 44.14197 18.52395 39019 ft 505 kts 144°
2026-04-21 08:57 44.08680 18.58495 39021 ft 505 kts 144°
2026-04-21 08:57 44.03212 18.64528 38999 ft 505 kts 145°
2026-04-21 08:58 43.97676 18.70622 39017 ft 503 kts 145°
2026-04-21 08:58 43.92225 18.76605 39020 ft 503 kts 145°
2026-04-21 08:59 43.86739 18.82612 39023 ft 502 kts 145°
2026-04-21 08:59 43.81247 18.88612 39023 ft 502 kts 145°
2026-04-21 09:00 43.75759 18.94591 39028 ft 501 kts 146°
2026-04-21 09:00 43.70271 19.00557 39029 ft 501 kts 146°
2026-04-21 09:01 43.64802 19.06490 39030 ft 502 kts 146°
2026-04-21 09:01 43.59293 19.12452 39031 ft 503 kts 146°
2026-04-21 09:02 43.53789 19.18394 39022 ft 502 kts 146°
2026-04-21 09:02 43.48274 19.24333 39024 ft 503 kts 146°
2026-04-21 09:03 43.40015 19.33199 39023 ft 503 kts 146°
2026-04-21 09:03 43.34489 19.39116 39024 ft 503 kts 146°
2026-04-21 09:04 43.28957 19.45023 39019 ft 505 kts 146°
2026-04-21 09:04 43.23392 19.50950 39020 ft 506 kts 146°
2026-04-21 09:05 43.17848 19.56844 39023 ft 506 kts 146°
2026-04-21 09:05 43.12282 19.62747 39018 ft 506 kts 146°
2026-04-21 09:06 43.06701 19.68652 39012 ft 506 kts 146°
2026-04-21 09:06 43.01121 19.74542 39013 ft 506 kts 146°
2026-04-21 09:07 42.95546 19.80413 39015 ft 506 kts 146°
2026-04-21 09:07 42.89964 19.86275 39007 ft 506 kts 146°
2026-04-21 09:08 42.84381 19.92127 38986 ft 506 kts 146°
2026-04-21 09:08 42.78821 19.97942 39008 ft 506 kts 146°
2026-04-21 09:09 42.73577 20.04327 38991 ft 509 kts 134°
2026-04-21 09:09 42.68941 20.11649 39007 ft 511 kts 132°
2026-04-21 09:10 42.64442 20.19111 38999 ft 510 kts 131°
2026-04-21 09:10 42.59945 20.26581 39009 ft 509 kts 131°
2026-04-21 09:11 42.55449 20.33988 39005 ft 509 kts 132°
2026-04-21 09:11 42.50922 20.41403 39001 ft 509 kts 132°
2026-04-21 09:12 42.46393 20.48794 39004 ft 510 kts 132°
2026-04-21 09:12 42.41884 20.56136 38998 ft 511 kts 132°
2026-04-21 09:13 42.37326 20.63540 38999 ft 511 kts 132°
2026-04-21 09:13 42.32764 20.70932 39001 ft 511 kts 132°
2026-04-21 09:14 42.28206 20.78300 39005 ft 512 kts 132°
2026-04-21 09:14 42.23637 20.85668 39000 ft 511 kts 132°
2026-04-21 09:15 42.19102 20.92965 39001 ft 510 kts 132°
2026-04-21 09:15 42.14537 21.00288 39002 ft 510 kts 132°
2026-04-21 09:16 42.09478 21.06833 39005 ft 501 kts 148°
2026-04-21 09:16 42.03692 21.12069 38963 ft 501 kts 151°
2026-04-21 09:17 41.97780 21.17032 38993 ft 500 kts 152°
2026-04-21 09:17 41.91859 21.21951 38995 ft 500 kts 152°
2026-04-21 09:18 41.85958 21.26881 38992 ft 500 kts 152°
2026-04-21 09:18 41.80087 21.31800 38960 ft 500 kts 152°
2026-04-21 09:19 41.74172 21.36750 38977 ft 501 kts 152°
2026-04-21 09:19 41.68249 21.41698 38976 ft 501 kts 152°
2026-04-21 09:20 41.62349 21.46614 38987 ft 502 kts 152°
2026-04-21 09:20 41.56408 21.51551 38959 ft 501 kts 152°
2026-04-21 09:21 41.50479 21.56468 38971 ft 502 kts 152°
2026-04-21 09:21 41.44553 21.61373 38972 ft 502 kts 152°
2026-04-21 09:22 41.38617 21.66276 38966 ft 502 kts 152°
2026-04-21 09:22 41.32679 21.71168 38940 ft 502 kts 152°
2026-04-21 09:23 41.26779 21.76018 38963 ft 501 kts 152°
2026-04-21 09:23 41.20842 21.80889 38941 ft 501 kts 152°
2026-04-21 09:24 41.14900 21.85753 38944 ft 502 kts 152°
2026-04-21 09:24 41.08948 21.90614 38938 ft 502 kts 152°
2026-04-21 09:25 41.03020 21.95536 38938 ft 503 kts 151°
2026-04-21 09:25 40.97152 22.00490 38943 ft 503 kts 151°
2026-04-21 09:26 40.91250 22.05469 38936 ft 503 kts 151°
2026-04-21 09:26 40.85338 22.10432 38936 ft 503 kts 152°
2026-04-21 09:27 40.79427 22.15377 38929 ft 502 kts 152°
2026-04-21 09:27 40.73540 22.20291 38931 ft 500 kts 152°
2026-04-21 09:28 40.67654 22.25193 38929 ft 500 kts 152°
2026-04-21 09:28 40.61767 22.30084 38930 ft 500 kts 152°
2026-04-21 09:29 40.55876 22.34970 38931 ft 500 kts 152°
2026-04-21 09:29 40.50011 22.39823 38929 ft 500 kts 152°
2026-04-21 09:30 40.44112 22.44695 38930 ft 500 kts 152°
2026-04-21 09:30 40.38217 22.49553 38925 ft 499 kts 152°
2026-04-21 09:31 40.32337 22.54389 38928 ft 499 kts 152°
2026-04-21 09:31 40.26491 22.59187 38927 ft 498 kts 152°
2026-04-21 09:32 40.20588 22.64021 38933 ft 499 kts 152°
2026-04-21 09:32 40.14706 22.68827 38933 ft 499 kts 152°
2026-04-21 09:33 40.08820 22.73627 38924 ft 499 kts 152°
2026-04-21 09:33 40.02955 22.78401 38945 ft 500 kts 152°
2026-04-21 09:34 39.97047 22.83200 38933 ft 499 kts 152°
2026-04-21 09:34 39.91142 22.87986 38936 ft 499 kts 152°
2026-04-21 09:35 39.85234 22.92765 38919 ft 499 kts 152°
2026-04-21 09:35 39.80333 22.96722 38934 ft 499 kts 152°
2026-04-21 09:36 39.73468 23.02253 38942 ft 498 kts 152°
2026-04-21 09:36 39.67570 23.06994 38942 ft 498 kts 152°
2026-04-21 09:37 39.62653 23.10939 38955 ft 498 kts 152°
2026-04-21 09:37 39.56755 23.15664 38943 ft 498 kts 152°
2026-04-21 09:38 39.50854 23.20380 38941 ft 498 kts 152°
2026-04-21 09:38 39.44942 23.25097 38944 ft 498 kts 152°
2026-04-21 09:39 39.39036 23.29798 38795 ft 499 kts 152°
2026-04-21 09:39 39.36116 23.32118 38523 ft 500 kts 152°
2026-04-21 09:39 39.33149 23.34475 38255 ft 500 kts 152°
2026-04-21 09:40 39.30181 23.36829 37984 ft 499 kts 152°
2026-04-21 09:40 39.27219 23.39177 37700 ft 500 kts 152°
2026-04-21 09:40 39.24250 23.41528 37430 ft 500 kts 152°
2026-04-21 09:40 39.21283 23.43874 37160 ft 500 kts 152°
2026-04-21 09:41 39.18307 23.46226 36895 ft 501 kts 152°
2026-04-21 09:41 39.15339 23.48568 36629 ft 501 kts 152°
2026-04-21 09:41 39.12402 23.50884 36373 ft 501 kts 152°
2026-04-21 09:41 39.09426 23.53229 36098 ft 501 kts 152°
2026-04-21 09:42 39.06447 23.55574 35839 ft 501 kts 152°
2026-04-21 09:42 39.03461 23.57921 35439 ft 501 kts 152°
2026-04-21 09:42 39.00477 23.60264 34697 ft 505 kts 152°
2026-04-21 09:42 38.97467 23.62621 33847 ft 510 kts 153°
2026-04-21 09:43 38.94264 23.64535 32881 ft 507 kts 167°
2026-04-21 09:43 38.90840 23.65484 32087 ft 502 kts 176°
2026-04-21 09:43 38.87384 23.66092 31299 ft 501 kts 178°
2026-04-21 09:43 38.83908 23.66628 30450 ft 503 kts 178°
2026-04-21 09:44 38.80423 23.67147 29527 ft 505 kts 178°
2026-04-21 09:44 38.76930 23.67662 28659 ft 505 kts 178°
2026-04-21 09:44 38.73496 23.68168 28020 ft 501 kts 178°
2026-04-21 09:44 38.70051 23.68675 27385 ft 496 kts 178°
2026-04-21 09:45 38.66628 23.69177 26737 ft 492 kts 178°
2026-04-21 09:45 38.63243 23.69673 26020 ft 489 kts 177°
2026-04-21 09:45 38.59867 23.70167 25396 ft 485 kts 177°
2026-04-21 09:45 38.56525 23.70655 24803 ft 481 kts 177°
2026-04-21 09:46 38.53203 23.71139 24186 ft 478 kts 177°
2026-04-21 09:46 38.49913 23.71618 23586 ft 474 kts 177°
2026-04-21 09:46 38.46648 23.72094 22963 ft 469 kts 177°
2026-04-21 09:46 38.43450 23.72559 22335 ft 465 kts 177°
2026-04-21 09:47 38.40254 23.73024 21673 ft 461 kts 177°
2026-04-21 09:47 38.37084 23.73485 21056 ft 455 kts 177°
2026-04-21 09:47 38.33962 23.73939 20166 ft 447 kts 177°
2026-04-21 09:47 38.30903 23.74383 19004 ft 439 kts 177°
2026-04-21 09:48 38.27892 23.74820 18027 ft 428 kts 177°
2026-04-21 09:48 38.24995 23.75242 17400 ft 408 kts 177°
2026-04-21 09:48 38.22234 23.75643 16840 ft 393 kts 177°
2026-04-21 09:48 38.19541 23.76044 16318 ft 387 kts 175°
2026-04-21 09:49 38.16912 23.76870 15759 ft 392 kts 161°
2026-04-21 09:49 38.14530 23.78506 15215 ft 396 kts 149°
2026-04-21 09:49 38.12251 23.80476 14660 ft 396 kts 147°
2026-04-21 09:49 38.09999 23.82485 14113 ft 393 kts 147°
2026-04-21 09:50 38.07785 23.84460 13534 ft 382 kts 147°
2026-04-21 09:50 38.06360 23.85725 13161 ft 375 kts 147°
2026-04-21 09:50 38.01378 23.90115 11923 ft 371 kts 147°
2026-04-21 09:51 37.99253 23.91979 11405 ft 370 kts 147°
2026-04-21 09:51 37.97136 23.93835 10879 ft 369 kts 147°
2026-04-21 09:51 37.95084 23.95634 10735 ft 355 kts 147°
2026-04-21 09:51 37.93099 23.97374 10619 ft 339 kts 147°
2026-04-21 09:52 37.91192 23.99043 10510 ft 327 kts 147°
2026-04-21 09:52 37.89347 24.00656 10362 ft 317 kts 147°
2026-04-21 09:52 37.87559 24.02219 10220 ft 307 kts 147°
2026-04-21 09:52 37.85824 24.03734 10091 ft 299 kts 147°
2026-04-21 09:53 37.84124 24.05215 9951 ft 293 kts 147°
2026-04-21 09:53 37.82441 24.06681 9567 ft 295 kts 147°
2026-04-21 09:53 37.80770 24.08135 9179 ft 297 kts 147°
2026-04-21 09:53 37.79132 24.09739 9000 ft 299 kts 135°
2026-04-21 09:54 37.77992 24.11914 8970 ft 299 kts 110°
2026-04-21 09:54 37.77714 24.14490 8974 ft 296 kts 82°
2026-04-21 09:54 37.78353 24.16922 8974 ft 292 kts 56°
2026-04-21 09:54 37.79738 24.18742 8961 ft 285 kts 30°
2026-04-21 09:55 37.81548 24.19661 8599 ft 281 kts
2026-04-21 09:55 37.83492 24.19548 8055 ft 281 kts 345°
2026-04-21 09:55 37.85380 24.18890 7605 ft 282 kts 341°
2026-04-21 09:55 37.87253 24.18148 7208 ft 282 kts 340°
2026-04-21 09:56 37.89127 24.17408 6831 ft 281 kts 341°
2026-04-21 09:56 37.90997 24.16683 6442 ft 281 kts 340°
2026-04-21 09:56 37.92863 24.15968 6069 ft 279 kts 341°
2026-04-21 09:56 37.94691 24.15272 5736 ft 277 kts 341°
2026-04-21 09:57 37.96531 24.14574 5369 ft 275 kts 341°
2026-04-21 09:57 37.98356 24.13883 5019 ft 274 kts 341°
2026-04-21 09:57 38.00168 24.13199 4721 ft 270 kts 341°
2026-04-21 09:57 38.01964 24.12520 4436 ft 264 kts 341°
2026-04-21 09:58 38.03677 24.11875 4239 ft 250 kts 341°
2026-04-21 09:58 38.05287 24.11166 4013 ft 240 kts 330°
2026-04-21 09:58 38.06525 24.09831 3790 ft 232 kts 301°
2026-04-21 09:58 38.07013 24.07934 3501 ft 228 kts 270°
2026-04-21 09:59 38.06629 24.06003 3170 ft 229 kts 238°
2026-04-21 09:59 38.05551 24.04546 2972 ft 227 kts 219°
2026-04-21 09:59 38.04270 24.03363 2619 ft 229 kts 212°
2026-04-21 09:59 38.02952 24.02218 2320 ft 230 kts 217°
2026-04-21 10:00 38.01712 24.00994 2036 ft 220 kts 216°
2026-04-21 10:00 38.00519 23.99867 1708 ft 208 kts 215°
2026-04-21 10:00 37.99335 23.98751 1458 ft 212 kts 216°
2026-04-21 10:00 37.98191 23.97655 1217 ft 200 kts 216°
2026-04-21 10:01 37.97122 23.96632 953 ft 185 kts 216°
2026-04-21 10:01 37.96124 23.95678 708 ft 175 kts 215°
2026-04-21 10:01 37.95185 23.94779 428 ft 162 kts 215°
2026-04-21 10:01 37.94336 23.93962 313 ft 144 kts 214°
2026-04-21 10:02 37.93301 23.92991 297 ft 35 kts 216°
2026-04-21 10:02 37.93188 23.92893 298 ft 18 kts 209°
2026-04-21 10:02 37.93074 23.92843 297 ft 17 kts 191°
2026-04-21 10:03 37.92970 23.92832 303 ft 13 kts 168°
2026-04-21 10:03 37.92940 23.92896 305 ft 7 kts 73°
2026-04-21 10:03 37.92976 23.92951 304 ft 11 kts 43°
2026-04-21 10:03 37.93058 23.93031 306 ft 19 kts 36°
2026-04-21 10:04 37.93183 23.93144 305 ft 25 kts 36°
2026-04-21 10:04 37.93335 23.93293 305 ft 28 kts 39°
2026-04-21 10:04 37.93420 23.93416 307 ft 12 kts 86°
2026-04-21 10:04 37.93388 23.93512 308 ft 12 kts 122°
2026-04-21 10:05 37.93336 23.93600 308 ft 13 kts 127°
2026-04-21 10:05 37.93282 23.93693 308 ft 14 kts 126°
2026-04-21 10:05 37.93222 23.93790 308 ft 15 kts 130°
2026-04-21 10:05 37.93159 23.93892 307 ft 15 kts 126°
2026-04-21 10:06 37.93097 23.93998 309 ft 15 kts 127°
2026-04-21 10:06 37.93030 23.94110 309 ft 16 kts 128°
2026-04-21 10:06 37.92959 23.94227 309 ft 17 kts 127°
2026-04-21 10:06 37.92890 23.94352 307 ft 17 kts 108°
2026-04-21 10:07 37.92946 23.94466 308 ft 16 kts 38°
2026-04-21 10:07 37.93042 23.94557 309 ft 18 kts 37°
2026-04-21 10:07 37.93145 23.94655 309 ft 19 kts 38°
2026-04-21 10:07 37.93255 23.94763 308 ft 21 kts 38°
2026-04-21 10:08 37.93374 23.94874 307 ft 22 kts 37°
2026-04-21 10:08 37.93496 23.94991 307 ft 23 kts 37°
2026-04-21 10:08 37.93626 23.95116 308 ft 24 kts 37°
2026-04-21 10:08 37.93763 23.95244 307 ft 25 kts 37°
2026-04-21 10:09 37.93904 23.95379 307 ft 26 kts 36°
2026-04-21 10:09 37.94052 23.95516 306 ft 27 kts 36°
2026-04-21 10:09 37.94200 23.95659 308 ft 27 kts 39°
2026-04-21 10:09 37.94326 23.95717 305 ft 12 kts 324°
2026-04-21 10:10 37.94382 23.95635 306 ft 13 kts 306°
2026-04-21 10:10 37.94437 23.95539 308 ft 14 kts 306°
2026-04-21 10:10 37.94475 23.95474 309 ft 8 kts 307°
2026-04-21 10:10 37.94504 23.95444 308 ft 2 kts
2026-04-21 10:11 37.94513 23.95452 308 ft 3 kts 30°
2026-04-21 10:11 37.94534 23.95468 306 ft 0 kts 31°
2026-04-21 10:11 37.94537 23.95472 308 ft 2 kts 38°
2026-04-21 10:11 37.94540 23.95476 308 ft 0 kts 38°